[[{"header":{"parameterUnit":"m.s-1","parameterCategory":1,"la1":30.2991,"la2":30.254,"lo1":-89.0895,"lo2":-89.0444,"dy":0.0017,"dx":0.0017,"nx":28,"ny":28,"refTime":"2025-01-09T09:00:00:Z","depth":0,"parameterNumber":2,"parameterNumberName":"U-component_of_WINDS"},"data":[0,0,0,0,0,0,0,0,0,0,0,0,0,0,0,0,0,0,0,0,0,0,0,0,0,0,0,0,0,0,0,0,0,0,0,0,0,0,0,0,0,0,0,0,0,0,0,0,0,0,0,0,0,0,0,0,0,0,-7.1906,-7.1907,0,-7.1953,-7.1954,-7.1954,-7.1784,-7.1778,-7.1773,-7.1769,-7.182,-7.1826,-7.1832,0,0,0,0,0,0,0,0,0,0,0,0,0,-7.167,-7.1675,-7.1906,-7.1907,-7.1907,-7.1953,-7.1954,-7.1955,-7.1785,-7.1778,-7.1772,-7.1766,-7.1818,-7.1825,-7.1832,0,0,0,0,0,0,0,0,0,0,0,0,0,-7.1751,-7.1677,-7.1906,-7.1828,-7.1821,-7.1953,-7.1954,-7.1955,-7.1786,-7.1778,-7.177,-7.1763,-7.1815,-7.1824,-7.1833,-7.2043,0,0,-7.1861,-7.1865,0,0,0,0,0,0,0,0,-7.1746,-7.1759,-7.1839,-7.1833,-7.1826,-7.1855,-7.1889,-7.1985,-7.1788,-7.1799,-7.1768,-7.176,-7.1838,-7.1845,-7.187,-7.2046,-7.2048,-7.1862,-7.1868,-7.1872,-7.1874,0,0,0,0,0,0,0,-7.1741,-7.1756,-7.1925,-7.184,-7.1833,-7.1791,-7.1794,-7.1906,-7.1861,-7.1798,-7.1785,-7.1793,-7.1833,-7.1862,-7.187,-7.2049,-7.1862,-7.187,-7.1876,-7.1879,-7.2396,-7.2404,0,0,0,0,0,0,-7.1745,-7.1753,-7.1923,-7.1926,-7.1767,-7.1801,-7.1805,-7.1853,-7.1859,-7.1853,-7.18,-7.1785,-7.185,-7.186,-7.1871,-7.2114,-7.1872,-7.188,-7.1885,-7.2388,-7.2398,-7.2407,0,0,0,0,0,0,-7.1741,-7.1762,-7.1921,-7.1836,-7.1853,-7.1814,-7.187,-7.1858,-7.1887,-7.1861,-7.1852,-7.1838,-7.1844,-7.1858,-7.2001,-7.2114,-7.1884,-7.1893,-7.2378,-7.2391,-7.2402,-7.2605,0,0,0,0,0,0,-7.1735,-7.1762,-7.1841,-7.1839,-7.1859,-7.205,-7.1877,-7.1865,-7.1903,-7.1884,-7.1894,-7.1888,-7.1839,-7.1988,-7.201,-7.2122,-7.19,-7.2368,-7.2384,-7.2398,-7.2588,-7.2623,-7.2652,0,0,0,0,0,-7.1727,-7.1897,-7.1845,-7.1867,-7.1956,-7.2057,-7.2068,-7.2007,-7.1913,-7.1992,-7.1975,-7.1888,-7.2099,-7.2004,-7.2027,-7.2144,-7.236,-7.2379,-7.2397,-7.2573,-7.2616,-7.2652,0,0,0,0,0,0,-7.1914,-7.1895,-7.1838,-7.2013,-7.2038,-7.2028,-7.2125,-7.2055,-7.2108,-7.2088,-7.2012,-7.2016,-7.2171,-7.2173,-7.2067,-7.2347,-7.2213,-7.2237,-7.2339,-7.2379,-7.2411,-7.2406,-7.1907,0,0,0,0,0,-7.1975,-7.2058,-7.2038,-7.2194,-7.2209,-7.2166,-7.2208,-7.2159,-7.2182,-7.2192,-7.2185,-7.2212,-7.2283,-7.2332,-7.2397,-7.2589,-7.2587,-7.2681,-7.2713,-7.2739,-7.276,-7.2858,-7.2899,-7.2467,-7.2467,-7.2467,0,0,-7.2103,-7.2103,-7.216,-7.2231,-7.2245,-7.2332,-7.2176,-7.2275,-7.2339,-7.2207,-7.2339,-7.2337,-7.2361,-7.2528,-7.2601,-7.2534,-7.2879,-7.2763,-7.2784,-7.279,-7.2882,-7.2922,-7.2959,-7.248,-7.2477,-7.2475,0,0,-7.2379,-7.2389,-7.2518,-7.2535,-7.2557,-7.2527,-7.2558,-7.256,-7.2552,-7.2684,-7.2586,-7.2662,-7.2788,-7.2808,-7.2835,-7.3119,-7.304,-7.3143,-7.331,-7.3407,-7.3441,-7.347,-7.3568,-7.3605,-7.3164,-7.3165,-7.3165,0,-7.2535,-7.2661,-7.2594,-7.2699,-7.2732,-7.2617,-7.2746,-7.2766,-7.281,-7.2835,-7.2759,-7.2913,-7.2922,-7.3091,-7.316,-7.3187,-7.3219,-7.3139,-7.3441,-7.347,-7.3497,-7.359,-7.3627,-7.3177,-7.3175,-7.3174,-7.3173,0,-7.285,-7.2939,-7.3041,-7.3083,-7.3129,-7.3247,-7.3197,-7.3251,-7.32,-7.3178,-7.3313,-7.332,-7.3382,-7.342,-7.3371,-7.3582,-7.3538,-7.3454,-7.3317,-7.3551,-7.3637,-7.3672,-7.3194,-7.319,-7.3186,-7.3183,0,0,-7.3242,-7.3246,-7.3284,-7.33,-7.3317,-7.3384,-7.3497,-7.3557,-7.3604,-7.3639,-7.3729,-7.3839,-7.3759,-7.379,-7.3743,-7.3829,-7.4049,-7.3732,-7.3732,-7.3788,-7.4278,-7.4339,-7.4381,-7.3999,-7.4005,-7.4011,-7.4275,0,-7.351,-7.3699,-7.3642,-7.3833,-7.3914,-7.3806,-7.3903,-7.3924,-7.3907,-7.3974,-7.3955,-7.4032,-7.3924,-7.3942,-7.4022,-7.4006,-7.4146,-7.3986,-7.408,-7.4085,-7.4073,-7.4426,-7.4491,-7.474,-7.4308,-7.4314,-7.4318,0,-7.3847,-7.3892,-7.4091,-7.4091,-7.4123,-7.4212,-7.4261,-7.4327,-7.4348,-7.4329,-7.4364,-7.4299,-7.4409,-7.4275,-7.4424,-7.4317,-7.4353,-7.4351,-7.4359,-7.4362,-7.4212,-7.4435,-7.4818,-7.4854,-7.4371,-7.4366,-7.4363,0,-7.4108,-7.422,-7.4352,-7.437,-7.4375,-7.4439,-7.4445,-7.4458,-7.4498,-7.4543,-7.4567,-7.4625,-7.4656,-7.4702,-7.4654,-7.4562,-7.481,-7.4673,-7.4796,-7.4797,-7.4849,-7.4846,-7.5239,-7.488,-7.488,-7.4879,-7.4878,0,-7.4411,-7.4535,-7.4468,-7.455,-7.4686,-7.462,-7.4757,-7.4751,-7.4764,-7.4841,-7.4754,-7.4829,-7.4763,-7.4832,-7.4796,-7.4923,-7.4939,-7.4926,-7.4914,-7.4931,-7.4933,-7.4951,-7.493,-7.4889,-7.4887,-7.4885,-7.4883,0,-7.4723,-7.4684,-7.482,-7.4814,-7.4815,-7.4916,-7.491,-7.4985,-7.4963,-7.5062,-7.5082,-7.5046,-7.5123,-7.5081,-7.5161,-7.5136,-7.53,-7.5267,-7.5292,-7.5282,-7.5405,-7.5393,-7.5821,-7.5872,-7.5485,-7.5488,-7.5492,0,-7.4917,-7.5009,-7.5013,-7.5058,-7.5069,-7.5143,-7.5182,-7.5122,-7.5167,-7.5197,-7.5268,-7.5337,-7.5388,-7.5517,-7.5498,-7.5558,-7.5523,-7.567,-7.5532,-7.5545,-7.552,-7.5514,-7.5521,-7.5696,-7.57,-7.5704,-7.5707,0,-7.5262,-7.5238,-7.5297,-7.535,-7.5399,-7.5439,-7.547,-7.5513,-7.5453,-7.5508,-7.5584,-7.5624,-7.5704,-7.5773,-7.5825,-7.583,-7.5759,-7.5751,-7.5782,-7.5798,-7.5807,-7.58,-7.5363,-7.5741,-7.5737,-7.5735,-7.5733,-7.5732,-7.5518,-7.5594,-7.5608,-7.5677,-7.5694,-7.5726,-7.5794,-7.578,-7.5843,-7.5902,-7.5864,-7.5954,-7.5972,-7.6033,-7.6049,-7.6118,-7.6059,-7.6105,-7.6116,-7.6127,-7.6141,-7.58,-7.6128,-7.6127,-7.6126,-7.6125,-7.6124,0,-7.5855,-7.5859,-7.5923,-7.5969,-7.6023,-7.5952,-7.5983,-7.6033,-7.6112,-7.6135,-7.6187,-7.6275,-7.6341,-7.6329,-7.6389,-7.6447,-7.6415,-7.6464,-7.6457,-7.6459,-7.6193,-7.6158,-7.6488,-7.6488,-7.6488,-7.6488,-7.6488,-7.6488,-7.6037,-7.6161,-7.6139,-7.6271,-7.6274,-7.6359,-7.6383,-7.6412,-7.6429,-7.653,-7.6584,-7.6576,-7.6584,-7.6644,-7.6701,-7.6696,-7.672,-7.6781,-7.6763,-7.6514,-7.6478,-7.6443,-7.641,-7.6788,-7.6788,-7.7023,-7.7025,-7.7026]},{"header":{"parameterUnit":"m.s-1","parameterCategory":1,"la1":30.2991,"la2":30.254,"lo1":-89.0895,"lo2":-89.0444,"dy":0.0017,"dx":0.0017,"nx":28,"ny":28,"refTime":"2025-01-09T09:00:00:Z","depth":0,"parameterNumber":3,"parameterNumberName":"V-component_of_WINDS"},"data":[0,0,0,0,0,0,0,0,0,0,0,0,0,0,0,0,0,0,0,0,0,0,0,0,0,0,0,0,0,0,0,0,0,0,0,0,0,0,0,0,0,0,0,0,0,0,0,0,0,0,0,0,0,0,0,0,0,0,1.5873,1.5874,0,1.5944,1.5945,1.5946,1.5825,1.5821,1.5817,1.5813,1.5891,1.5897,1.5902,0,0,0,0,0,0,0,0,0,0,0,0,0,1.5639,1.5644,1.5873,1.5874,1.5875,1.5944,1.5945,1.5946,1.5826,1.5821,1.5816,1.5811,1.5889,1.5896,1.5903,0,0,0,0,0,0,0,0,0,0,0,0,0,1.5729,1.5646,1.5873,1.5823,1.5819,1.5944,1.5945,1.5946,1.5827,1.5821,1.5814,1.5809,1.5887,1.5895,1.5904,1.6082,0,0,1.5931,1.5935,0,0,0,0,0,0,0,0,1.5724,1.5738,1.5829,1.5827,1.5822,1.5869,1.5891,1.5992,1.5828,1.5824,1.5813,1.5806,1.5889,1.5897,1.5924,1.6086,1.6089,1.5932,1.5937,1.5941,1.5943,0,0,0,0,0,0,0,1.5718,1.5734,1.5901,1.5831,1.5827,1.5799,1.5805,1.591,1.589,1.5824,1.5815,1.5825,1.5886,1.5916,1.5925,1.609,1.5932,1.5939,1.5945,1.5948,1.6405,1.6411,0,0,0,0,0,0,1.5717,1.573,1.5899,1.5903,1.5757,1.5808,1.5815,1.5861,1.5889,1.5887,1.583,1.5819,1.5904,1.5915,1.5928,1.6141,1.5941,1.5949,1.5954,1.6398,1.6406,1.6414,0,0,0,0,0,0,1.5713,1.5733,1.5896,1.5814,1.5833,1.5819,1.5871,1.5865,1.5895,1.5894,1.589,1.5864,1.5899,1.5915,1.6045,1.6141,1.5953,1.5961,1.639,1.6401,1.641,1.6567,0,0,0,0,0,0,1.5706,1.5732,1.5798,1.5816,1.5837,1.6011,1.5877,1.5871,1.591,1.5896,1.5924,1.5923,1.5896,1.6032,1.6054,1.615,1.5968,1.6381,1.6395,1.6407,1.6553,1.6581,1.6605,0,0,0,0,0,1.5698,1.584,1.5802,1.5823,1.5919,1.6016,1.6029,1.5993,1.5918,1.5986,1.5985,1.5922,1.6127,1.6047,1.607,1.617,1.6375,1.6391,1.6406,1.6541,1.6575,1.6604,0,0,0,0,0,0,1.5835,1.5841,1.58,1.5951,1.5984,1.5996,1.608,1.603,1.6086,1.6071,1.6025,1.6033,1.6173,1.6184,1.6095,1.6346,1.6239,1.626,1.6334,1.6367,1.6392,1.6388,1.5976,0,0,0,0,0,1.5882,1.5959,1.5961,1.6094,1.6113,1.6094,1.6135,1.6104,1.6137,1.6151,1.616,1.6196,1.6269,1.6318,1.6384,1.6553,1.656,1.6634,1.666,1.6681,1.6701,1.6795,1.6829,1.6464,1.6464,1.6464,0,0,1.5982,1.5994,1.6046,1.6122,1.6144,1.6227,1.6106,1.6198,1.626,1.6166,1.6289,1.6297,1.6335,1.6486,1.6553,1.65,1.6803,1.6701,1.6718,1.6726,1.6814,1.6849,1.6879,1.6474,1.6473,1.6471,0,0,1.6205,1.6221,1.6336,1.636,1.6395,1.6382,1.6409,1.643,1.6431,1.6554,1.6486,1.6559,1.6684,1.6715,1.6747,1.6985,1.6931,1.7008,1.7145,1.7237,1.7266,1.7291,1.7379,1.7411,1.7026,1.7027,1.7027,0,1.6325,1.6445,1.6401,1.6499,1.6536,1.6453,1.657,1.6596,1.6652,1.6681,1.6619,1.6777,1.6796,1.6955,1.7013,1.704,1.7073,1.7005,1.7265,1.729,1.7313,1.7397,1.743,1.7036,1.7035,1.7034,1.7033,0,1.6592,1.6677,1.6765,1.682,1.6867,1.6974,1.6949,1.7002,1.6968,1.6962,1.7091,1.7111,1.7181,1.7216,1.7184,1.7372,1.7338,1.7272,1.7164,1.7358,1.7436,1.7467,1.705,1.7046,1.7043,1.7041,0,0,1.6905,1.6934,1.6968,1.6993,1.7026,1.7092,1.7197,1.7264,1.7313,1.7354,1.7443,1.7551,1.7491,1.7527,1.7498,1.7578,1.777,1.7502,1.7502,1.7554,1.7983,1.8035,1.8072,1.7733,1.7739,1.7743,1.798,0,1.713,1.7308,1.7273,1.7449,1.7528,1.7451,1.7543,1.7575,1.7573,1.7642,1.7639,1.7718,1.763,1.7653,1.7728,1.773,1.7856,1.7712,1.7819,1.7823,1.7814,1.8112,1.8167,1.839,1.801,1.8015,1.8019,0,1.7416,1.7468,1.7652,1.7674,1.7706,1.7789,1.785,1.7916,1.7951,1.7944,1.7986,1.7942,1.8049,1.7938,1.8087,1.799,1.8032,1.8039,1.8047,1.8058,1.7935,1.8135,1.8459,1.8494,1.8066,1.8062,1.8059,0,1.763,1.7745,1.7871,1.7894,1.7923,1.7984,1.7999,1.8028,1.8072,1.8126,1.8155,1.822,1.8258,1.8311,1.8287,1.8208,1.8442,1.8328,1.8442,1.8443,1.8497,1.8495,1.8837,1.8519,1.8518,1.8518,1.8517,0,1.7886,1.8003,1.7968,1.8046,1.8175,1.8134,1.8264,1.827,1.8297,1.8376,1.8313,1.839,1.8352,1.8427,1.8409,1.8537,1.8553,1.8553,1.8548,1.8561,1.8562,1.8589,1.8575,1.8527,1.8525,1.8523,1.8521,0,1.8148,1.8128,1.8261,1.8277,1.8284,1.8379,1.8394,1.8469,1.8461,1.8563,1.8585,1.8575,1.866,1.8641,1.8734,1.8722,1.8884,1.8857,1.8872,1.8867,1.8984,1.8974,1.9358,1.9408,1.9055,1.9059,1.9061,0,1.8314,1.8402,1.8428,1.8476,1.8496,1.8574,1.8619,1.8583,1.8632,1.8681,1.875,1.8829,1.8891,1.9031,1.9033,1.9105,1.9082,1.9211,1.9092,1.9104,1.9088,1.9084,1.9095,1.9236,1.924,1.9243,1.9246,0,1.8613,1.86,1.8665,1.873,1.8784,1.8833,1.8876,1.892,1.8887,1.8947,1.9032,1.908,1.9175,1.9256,1.9323,1.934,1.9291,1.9283,1.9314,1.933,1.9336,1.9338,1.894,1.9275,1.9272,1.927,1.9268,1.9267,1.8835,1.891,1.8941,1.9018,1.9046,1.9088,1.9159,1.9161,1.9231,1.9306,1.928,1.9379,1.9415,1.9499,1.9525,1.9604,1.9555,1.9599,1.9611,1.9623,1.9639,1.9321,1.9615,1.9615,1.9614,1.9613,1.9612,0,1.9133,1.9149,1.922,1.9282,1.9343,1.9287,1.9333,1.9389,1.9476,1.9513,1.9575,1.9675,1.9754,1.9762,1.9837,1.9899,1.9878,1.992,1.9917,1.9923,1.9676,1.9644,1.9936,1.9936,1.9936,1.9936,1.9936,1.9936,1.9296,1.9422,1.9413,1.9554,1.9569,1.9665,1.9696,1.9736,1.9765,1.988,1.9944,1.9949,1.9976,2.0052,2.0123,2.0124,2.0156,2.0208,2.0201,1.9972,1.9939,1.9909,1.9878,2.0215,2.0215,2.0441,2.0443,2.0444]}]]